CZ-6A DEB

Satellite information

Favourite Embed

Satellite Type and Status

DEBRISIN ORBIT

Key statistics

Satellite CZ-6A DEB at a glance.

Uptime

441

Days in orbit

Revolutions

≈ 14.6

Per day

Orbit

LEO

Low Earth Orbit

Inclination

88.9

Latest

Satellite identification and parameters

Extended collection of information and parameters for CZ-6A DEB.

Object identification

Identified? True

Debris? True

Object name: CZ-6A DEB

International designator: 2024-140UN

Object number (NORAD): 61325

Object ID (CCSDS): 61325

Country: PEOPLES REPUBLIC OF CHINA (PRC)

Current information (Y/N): Y

RCS size: SMALL

Orbital parameters

Period: 98.816 minutes

Inclination: 88.9217 deg

SMA: 7080.211 km

Apoapsis: 765.127 km

Periapsis: 639.024 km

RAAN: 294.8375 deg

Eccentricy: 0.00890535

Argument of periapsis: 289.9062 deg

Mean anomaly: 69.257 deg

Mean motion: 14.57248115 rev/day

Mean motion (dot): 0.00015341 rev/day2

B* drag term: 0.0032084058 1/REarth

Two-line elements (TLE)

Creation date: Oct. 20, 2025, 6:08 p.m.

Reference frame: TEME

Reference center: EARTH

Epoch: Oct. 20, 2025, 9:46 a.m. UTC

TLE line 0: 0 CZ-6A DEB

TLE line 1: 1 61325U 24140UN 25293.40734483 .00015341 00000-0 32084-2 0 9995

TLE line 2: 2 61325 88.9217 294.8375 0089053 289.9062 69.2570 14.57248115 59790

Live tracking on map

Real-time ground track for satellite CZ-6A DEB.

In-orbit conjunctions

A list of the most updated potential collisions computed for object CZ-6A DEB.

Target Orbit TCA Probability of collision Miss distance Type
CZ-4 DEB SSO 2025-03-18 21:54:18 0.0002431779 45.0 (m) DEBRIS
CZ-6A DEB LEO 2025-02-18 02:31:56 0.0002139702 123.0 (m) DEBRIS
FENGYUN 1C DEB SSO 2024-11-10 23:02:57 0.0002607937 336.0 (m) DEBRIS

Associated space launch

18 Low Earth Orbit communication satellites with Ku, Q and V band payloads for the G60 constellation operated by Shanghai Spacecom Satellite Technology (SSST) with funding backed by the Shanghai local government. Initial constellation will consist of 1296 satellites by 2027 with long term plans to expand it to 12000 satellites.

CZ-6A DEB was lifted into orbit during the mission ‘Long March 6A | G60 Polar Group 01’, on board a Long March 6A space rocket.

The launch took place on Aug. 6, 2024, 6:42 a.m. from Launch Complex 9A.

For more information about the launch, click the button.

Launch to space Long March 6A | G60 Polar Group 01
Long March 6A | G60 Polar Group 01

Agency: N/A

Status: Launch Successful

Launch date: Aug. 6, 2024, 6:42 a.m. UTC

Rocket: Long March 6A

Launch pad: Launch Complex 9A

Location: Taiyuan Satellite Launch Center, People's Republic of China

...

Latest news about this satellite

News about space launch
Brightness of first Chinese broadband constellation satellites alarms astronomers

The first satellites of a Chinese broadband constellation are significantly brighter than those of Western systems, posing a new challenge for astronomers.

News about space launch
Chinese rocket stage breaks up into cloud of more than 700 pieces of space debris

HELSINKI — A Chinese Long March 6A rocket’s upper stage has fragmented into a cloud of over 700 pieces of space debris, adding to concerns about long-term orbital safety. China […]

News about space launch
China's Thousand Sails Megaconstellation Kicks Off with Dangerous Debris Field

China's Thousand Sails Megaconstellation Kicks Off with Dangerous Debris Field


Newsletter sign-up

Weekly statistics, charts and insights to help you stay on top of the space industry.